Location: Napoli
(40.8639°N, 14.2562°E)
Time: 07:53:54
(UTC+01:00)

ISS - Visible Passes

Search period start: 20 March 2019 00:00
Search period end: 30 March 2019 00:00
Orbit: 406 x 411 km, 51.6° (Epoch: 20 March)

Date Brightness Start Highest point End Pass type
(mag) Time Alt. Az. Time Alt. Az. Time Alt. Az.
20 Mar -2.6 19:41:49 10° SSW 19:43:57 29° S 19:43:57 29° S visible
21 Mar -2.2 18:51:36 10° S 18:54:00 19° SE 18:56:06 11° E visible
21 Mar -1.8 20:27:07 10° WSW 20:28:54 27° W 20:28:54 27° W visible
22 Mar -3.9 19:35:59 10° SW 19:39:17 88° NW 19:40:47 30° NE visible
23 Mar -3.5 18:45:06 10° SW 18:48:17 48° SE 18:51:29 10° ENE visible
23 Mar -1.8 20:22:10 10° W 20:25:00 25° NNW 20:25:14 25° NNW visible
24 Mar -2.5 19:30:42 10° W 19:33:49 38° NNW 19:36:43 11° NE visible
24 Mar -0.3 21:09:12 10° NW 21:09:28 11° NW 21:09:28 11° NW visible
25 Mar -1.3 20:17:30 10° WNW 20:19:45 17° NNW 20:20:47 15° N visible
26 Mar -1.5 19:25:49 10° WNW 19:28:28 22° NNW 19:31:07 10° NNE visible
26 Mar -0.4 21:04:23 10° NNW 21:04:43 11° NNW 21:04:43 11° NNW visible
27 Mar -1.1 20:12:50 10° NW 20:14:34 13° N 20:15:48 12° NNE visible
28 Mar -1.1 19:21:07 10° NW 19:23:11 15° NNW 19:25:15 10° NNE visible
28 Mar -0.6 20:58:59 10° NNW 20:59:33 12° NNW 20:59:33 12° NNW visible
29 Mar -1.1 20:07:47 10° NNW 20:09:23 13° N 20:10:30 11° NNE visible
